Weather History for Watertown, NY

Change the Weather History Date:

Friday, November 23, 2012

  Actual Average Record
Temperature  
Mean Temperature 48 °F 36 °F  
Max Temperature 55 °F 44 °F 69 °F (1979)
Min Temperature 40 °F 27 °F -2 °F (2000)
Degree Days  
Heating Degree Days 17 29  
Month to date heating degree days 614 584  
Since 1 July heating degree days 1166 1380  
Cooling Degree Days 0 0  
Month to date cooling degree days 0 0  
Year to date cooling degree days 607 362  
Moisture  
Dew Point 35 °F    
Average Humidity 62    
Maximum Humidity 86    
Minimum Humidity 38    
Precipitation  
Precipitation 0.21 in 0.13 in 0.75 in (1992)
Month to date precipitation 1.41 2.90  
Year to date precipitation 30.18 32.07  
Sea Level Pressure  
Sea Level Pressure 29.71 in    
Wind  
Wind Speed 12 mph (SSW)    
Max Wind Speed 28 mph    
Max Gust Speed 41 mph    
Visibility 9 miles    
Events Rain    
T = Trace of Precipitation, MM = Missing Value Source: NWS Daily Summary

Daily Weather History Graph

Daily Weather History Graph

Search for Another Location

Airport:

Trip Planner

Search our weather history database for the weather conditions in past years. The results will help you decide how hot, cold, wet, or windy it might be!

Date:

Astronomy

Nov. 23, 2012 Rise Set
Actual Time 7:09 AM EST 4:31 PM EST
Civil Twilight 6:38 AM EST 5:02 PM EST
Nautical Twilight 6:02 AM EST 5:38 PM EST
Astronomical Twilight 5:28 AM EST 6:12 PM EST
Moon 1:52 PM EST (11/23) 2:18 AM EST (11/23)
Length of Visible Light 10h 24m
Length of Day
9h 21m
Waxing Gibbous, 79% of the Moon is Illuminated
Nov 23
Waxing Gibbous
Nov 28
Full
Dec 6
Last Quarter
Dec 13
New
Dec 20
First Quarter

Hourly Weather History & Observations

Time (EST) Temp. Windchill Dew Point Humidity Pressure Visibility Wind Dir Wind Speed Gust Speed Precip Events Conditions
12:56 AM 51.1 °F - 28.0 °F 41% 29.95 in 10.0 mi South 10.4 mph 18.4 mph N/A   Clear
1:56 AM 52.0 °F - 28.0 °F 40% 29.93 in 10.0 mi South 9.2 mph - N/A   Clear
2:56 AM 50.0 °F - 28.0 °F 43% 29.91 in 10.0 mi South 9.2 mph 18.4 mph N/A   Clear
3:56 AM 48.9 °F - 27.0 °F 43% 29.87 in 10.0 mi South 9.2 mph - N/A   Clear
4:56 AM 48.9 °F - 27.0 °F 43% 29.85 in 10.0 mi South 9.2 mph 17.3 mph N/A   Clear
5:56 AM 48.9 °F - 27.0 °F 43% 29.82 in 10.0 mi South 10.4 mph 18.4 mph N/A   Clear
6:56 AM 48.9 °F - 27.0 °F 43% 29.79 in 10.0 mi South 12.7 mph 20.7 mph N/A   Clear
7:56 AM 48.9 °F - 28.9 °F 46% 29.76 in 10.0 mi South 9.2 mph 18.4 mph N/A   Clear
8:56 AM 53.1 °F - 30.0 °F 41% 29.73 in 10.0 mi SSE 11.5 mph 19.6 mph N/A   Clear
9:56 AM 55.0 °F - 30.9 °F 40% 29.71 in 10.0 mi South 13.8 mph 25.3 mph N/A   Mostly Cloudy
10:56 AM 55.0 °F - 32.0 °F 42% 29.68 in 10.0 mi South 10.4 mph 18.4 mph N/A   Overcast
11:56 AM 48.9 °F - 39.9 °F 71% 29.67 in 5.0 mi South 9.2 mph - 0.03 in Rain Light Rain
12:56 PM 48.2 °F - 42.8 °F 82% 29.65 in 4.0 mi South 10.4 mph 17.3 mph N/A Rain Light Rain
1:56 PM 48.0 °F - 44.1 °F 86% 29.64 in 4.0 mi South 9.2 mph - 0.10 in Rain Light Rain
2:14 PM 48.2 °F - 44.6 °F 87% 29.63 in 5.0 mi South 9.2 mph 18.4 mph 0.01 in Rain Light Rain
2:49 PM 48.2 °F - 42.8 °F 82% 29.62 in 10.0 mi South 9.2 mph 19.6 mph 0.02 in   Overcast
2:56 PM 48.0 °F - 43.0 °F 83% 29.62 in 10.0 mi South 10.4 mph 18.4 mph 0.02 in   Overcast
3:56 PM 50.0 °F - 43.0 °F 77% 29.61 in 10.0 mi South 12.7 mph 20.7 mph N/A   Overcast
4:56 PM 48.9 °F - 42.1 °F 77% 29.63 in 10.0 mi SW 10.4 mph - N/A   Scattered Clouds
5:56 PM 48.0 °F - 41.0 °F 77% 29.65 in 10.0 mi WSW 10.4 mph 21.9 mph N/A   Mostly Cloudy
6:56 PM 46.0 °F 41.4 °F 37.9 °F 73% 29.65 in 10.0 mi WSW 9.2 mph - N/A   Mostly Cloudy
7:56 PM 46.9 °F - 35.1 °F 63% 29.64 in 10.0 mi WSW 11.5 mph 23.0 mph N/A   Overcast
8:56 PM 46.0 °F 38.5 °F 34.0 °F 63% 29.64 in 10.0 mi SW 19.6 mph 27.6 mph 0.00 in Rain Light Rain
9:56 PM 42.1 °F 34.2 °F 36.0 °F 79% 29.64 in 5.0 mi WSW 16.1 mph 33.4 mph 0.01 in Rain Rain
10:46 PM 42.8 °F 33.8 °F 33.8 °F 70% 29.64 in 10.0 mi WSW 21.9 mph 34.5 mph 0.00 in   Overcast
10:56 PM 42.1 °F 32.3 °F 30.9 °F 65% 29.65 in 10.0 mi WSW 24.2 mph 41.4 mph 0.00 in   Overcast
11:56 PM 39.9 °F 30.8 °F 30.0 °F 68% 29.65 in 10.0 mi SW 18.4 mph 33.4 mph 0.00 in Rain Light Rain